Location: Vale
(35.4830°N, 81.3830°W)
Time: 09:18:29
(UTC-04:00)

Cosmos 2237 Rocket - Visible Passes

Search period start: 28 July 2015 00:00
Search period end: 07 August 2015 00:00
Orbit: 837 x 848 km, 71.0° (Epoch: 27 July)

Date Brightness Start Highest point End Pass type
(mag) Time Alt. Az. Time Alt. Az. Time Alt. Az.
28 Jul 4.5 22:06:47 10° WNW 22:10:45 19° WSW 22:14:28 10° SW visible
29 Jul 4.5 21:51:52 10° NW 21:55:58 20° WSW 21:59:51 10° SW visible
30 Jul 4.4 21:36:57 10° NW 21:41:10 21° WSW 21:45:13 10° SSW visible
31 Jul 4.4 21:22:02 10° NW 21:26:23 23° WSW 21:30:34 10° SSW visible
01 Aug 4.4 21:07:09 10° NW 21:11:36 24° WSW 21:15:55 10° SSW visible
02 Aug 4.4 20:52:15 10° NW 20:56:49 25° WSW 21:01:15 10° SSW visible
